| time (UTC) | temp C | wind direction | speed KPH | gust KPH | rain 1hr cm | rain 24hr cm | rain mn cm | humidity % | barometer mb |
| 20260510034131 | 25 | 225 | 0.0 | 0.0 | 0.00 | 0.00 | 0.00 | 15 | 1010.0 |
| 20260510033616 | 25 | 225 | 0.0 | 3.2 | 0.00 | 0.00 | 0.00 | 15 | 1010.0 |
| 20260510032630 | 23 | 226 | 0.0 | 0.0 | 0.00 | 0.00 | 0.00 | 16 | 1010.0 |
| 20260510031129 | 24 | 315 | 4.8 | 8.0 | 0.00 | 0.00 | 0.00 | 15 | 1010.0 |
| 20260510030616 | 25 | 185 | 0.0 | 8.0 | 0.00 | 0.00 | 0.00 | 15 | 1011.0 |
| 20260510025632 | 24 | 270 | 0.0 | 4.8 | 0.00 | 0.00 | 0.00 | 15 | 1011.0 |
| 20260510024130 | 23 | 270 | 3.2 | 4.8 | 0.00 | 0.00 | 0.00 | 16 | 1011.0 |
| 20260510023617 | 23 | 225 | 0.0 | 4.8 | 0.00 | 0.00 | 0.00 | 16 | 1011.0 |
| 20260510022632 | 22 | 315 | 0.0 | 0.0 | 0.00 | 0.00 | 0.00 | 16 | 1011.0 |
| 20260510021130 | 21 | 270 | 0.0 | 0.0 | 0.00 | 0.00 | 0.00 | 17 | 1011.0 |
| 20260510020615 | 21 | 164 | 0.0 | 3.2 | 0.00 | 0.00 | 0.00 | 19 | 1011.0 |
| 20260510013616 | 20 | 225 | 0.0 | 3.2 | 0.00 | 0.00 | 0.00 | 20 | 1011.0 |
| 20260510012631 | 20 | 268 | 1.6 | 9.7 | 0.00 | 0.00 | 0.00 | 20 | 1011.0 |
| 20260510011131 | 20 | 180 | 0.0 | 3.2 | 0.00 | 0.00 | 0.00 | 20 | 1011.0 |
| 20260510010616 | 20 | 180 | 1.6 | 3.2 | 0.00 | 0.00 | 0.00 | 20 | 1011.0 |
| 20260510005629 | 20 | 180 | 0.0 | 0.0 | 0.00 | 0.00 | 0.00 | 20 | 1011.0 |
| 20260510004129 | 19 | 180 | 0.0 | 0.0 | 0.00 | 0.00 | 0.00 | 20 | 1011.0 |
| 20260510003616 | 19 | 180 | 0.0 | 0.0 | 0.00 | 0.00 | 0.00 | 20 | 1012.0 |
| 20260510002629 | 18 | 180 | 0.0 | 0.0 | 0.00 | 0.00 | 0.00 | 20 | 1012.0 |
| 20260510000616 | 18 | 135 | 0.0 | 0.0 | 0.00 | 0.00 | 0.00 | 24 | 1012.0 |
| 20260509235630 | 18 | 135 | 0.0 | 0.0 | 0.00 | 0.00 | 0.00 | 27 | 1012.0 |
| 20260509234131 | 17 | 135 | 0.0 | 0.0 | 0.00 | 0.00 | 0.00 | 33 | 1011.0 |
| 20260509233615 | 17 | 135 | 0.0 | 0.0 | 0.00 | 0.00 | 0.00 | 34 | 1011.0 |
| 20260509232630 | 17 | 135 | 0.0 | 0.0 | 0.00 | 0.00 | 0.00 | 35 | 1011.0 |
| 20260509231130 | 16 | 135 | 0.0 | 0.0 | 0.00 | 0.00 | 0.00 | 36 | 1011.0 |
| 20260509230615 | 16 | 135 | 0.0 | 0.0 | 0.00 | 0.00 | 0.00 | 35 | 1011.0 |
| 20260509225629 | 16 | 135 | 0.0 | 0.0 | 0.00 | 0.00 | 0.00 | 36 | 1011.0 |
| 20260509224132 | 16 | 135 | 0.0 | 0.0 | 0.00 | 0.00 | 0.00 | 37 | 1012.0 |
| 20260509223619 | 16 | 135 | 0.0 | 0.0 | 0.00 | 0.00 | 0.00 | 37 | 1012.0 |
| 20260509222632 | 15 | 135 | 0.0 | 0.0 | 0.00 | 0.00 | 0.00 | 43 | 1012.0 |
| 20260509221132 | 14 | 135 | 0.0 | 0.0 | 0.00 | 0.00 | 0.00 | 44 | 1011.0 |
| 20260509220619 | 14 | 135 | 0.0 | 0.0 | 0.00 | 0.00 | 0.00 | 45 | 1012.0 |
| 20260509215631 | 14 | 135 | 0.0 | 0.0 | 0.00 | 0.00 | 0.00 | 46 | 1012.0 |
| 20260509214131 | 13 | 135 | 0.0 | 0.0 | 0.00 | 0.00 | 0.00 | 47 | 1012.0 |
| 20260509213618 | 13 | 135 | 0.0 | 0.0 | 0.00 | 0.00 | 0.00 | 47 | 1012.0 |
| 20260509212632 | 13 | 135 | 0.0 | 0.0 | 0.00 | 0.00 | 0.00 | 48 | 1012.0 |
| 20260509211132 | 12 | 135 | 0.0 | 0.0 | 0.00 | 0.00 | 0.00 | 49 | 1011.0 |
| 20260509210619 | 12 | 135 | 0.0 | 0.0 | 0.00 | 0.00 | 0.00 | 49 | 1012.0 |
| 20260509205632 | 12 | 135 | 0.0 | 0.0 | 0.00 | 0.00 | 0.00 | 48 | 1012.0 |
| 20260509204131 | 12 | 135 | 0.0 | 0.0 | 0.00 | 0.00 | 0.00 | 48 | 1011.0 |
| 20260509203618 | 12 | 135 | 0.0 | 0.0 | 0.00 | 0.00 | 0.00 | 48 | 1011.0 |
| 20260509202631 | 12 | 135 | 0.0 | 0.0 | 0.00 | 0.00 | 0.00 | 49 | 1011.0 |
| 20260509201132 | 12 | 135 | 0.0 | 0.0 | 0.00 | 0.00 | 0.00 | 49 | 1011.0 |
| 20260509200618 | 12 | 135 | 0.0 | 0.0 | 0.00 | 0.00 | 0.00 | 48 | 1011.0 |
| 20260509195633 | 12 | 135 | 0.0 | 0.0 | 0.00 | 0.00 | 0.00 | 48 | 1011.0 |
| 20260509194133 | 12 | 135 | 0.0 | 0.0 | 0.00 | 0.00 | 0.00 | 47 | 1010.0 |
| 20260509193618 | 12 | 135 | 0.0 | 0.0 | 0.00 | 0.00 | 0.00 | 47 | 1010.0 |
| 20260509192633 | 12 | 135 | 0.0 | 0.0 | 0.00 | 0.00 | 0.00 | 47 | 1010.0 |
| 20260509191133 | 12 | 135 | 0.0 | 0.0 | 0.00 | 0.00 | 0.00 | 46 | 1010.0 |
| 20260509190617 | 12 | 135 | 0.0 | 0.0 | 0.00 | 0.00 | 0.00 | 46 | 1011.0 |
| 20260509185632 | 12 | 135 | 0.0 | 0.0 | 0.00 | 0.00 | 0.00 | 46 | 1011.0 |
| 20260509184131 | 12 | 135 | 0.0 | 0.0 | 0.00 | 0.00 | 0.00 | 45 | 1010.0 |
| 20260509183618 | 12 | 135 | 0.0 | 0.0 | 0.00 | 0.00 | 0.00 | 45 | 1010.0 |
| 20260509182631 | 12 | 135 | 0.0 | 0.0 | 0.00 | 0.00 | 0.00 | 44 | 1010.0 |
| 20260509181131 | 13 | 135 | 0.0 | 0.0 | 0.00 | 0.00 | 0.00 | 43 | 1010.0 |
| 20260509180618 | 13 | 135 | 0.0 | 0.0 | 0.00 | 0.00 | 0.00 | 42 | 1010.0 |
| 20260509175633 | 13 | 135 | 0.0 | 0.0 | 0.00 | 0.00 | 0.00 | 42 | 1010.0 |
| 20260509174132 | 13 | 135 | 0.0 | 0.0 | 0.00 | 0.00 | 0.00 | 40 | 1010.0 |
| 20260509173618 | 13 | 135 | 0.0 | 3.2 | 0.00 | 0.00 | 0.00 | 40 | 1010.0 |
| 20260509172633 | 13 | 135 | 0.0 | 0.0 | 0.00 | 0.00 | 0.00 | 40 | 1010.0 |
| 20260509171132 | 13 | 135 | 0.0 | 0.0 | 0.00 | 0.00 | 0.00 | 39 | 1010.0 |
| 20260509170617 | 13 | 135 | 0.0 | 0.0 | 0.00 | 0.00 | 0.00 | 39 | 1010.0 |
| 20260509165632 | 13 | 135 | 0.0 | 0.0 | 0.00 | 0.00 | 0.00 | 38 | 1010.0 |
| 20260509164132 | 13 | 135 | 0.0 | 0.0 | 0.00 | 0.00 | 0.00 | 38 | 1010.0 |
| 20260509163617 | 13 | 135 | 0.0 | 0.0 | 0.00 | 0.00 | 0.00 | 38 | 1010.0 |
| 20260509162632 | 14 | 135 | 0.0 | 0.0 | 0.00 | 0.00 | 0.00 | 38 | 1010.0 |
| 20260509161131 | 14 | 135 | 0.0 | 0.0 | 0.00 | 0.00 | 0.00 | 38 | 1010.0 |
| 20260509160617 | 14 | 135 | 0.0 | 0.0 | 0.00 | 0.00 | 0.00 | 38 | 1011.0 |
| 20260509155631 | 14 | 135 | 0.0 | 0.0 | 0.00 | 0.00 | 0.00 | 37 | 1010.0 |
| 20260509154133 | 14 | 135 | 0.0 | 0.0 | 0.00 | 0.00 | 0.00 | 37 | 1010.0 |
| 20260509153617 | 14 | 135 | 0.0 | 0.0 | 0.00 | 0.00 | 0.00 | 37 | 1010.0 |
| 20260509152635 | 14 | 135 | 0.0 | 0.0 | 0.00 | 0.00 | 0.00 | 37 | 1010.0 |
| 20260509151132 | 14 | 135 | 0.0 | 0.0 | 0.00 | 0.00 | 0.00 | 36 | 1010.0 |
| 20260509150617 | 15 | 135 | 0.0 | 4.8 | 0.00 | 0.00 | 0.00 | 36 | 1011.0 |
| 20260509145632 | 15 | 225 | 0.0 | 0.0 | 0.00 | 0.00 | 0.00 | 35 | 1011.0 |
| 20260509144131 | 15 | 225 | 0.0 | 0.0 | 0.00 | 0.00 | 0.00 | 35 | 1010.0 |
| 20260509143617 | 15 | 225 | 0.0 | 0.0 | 0.00 | 0.00 | 0.00 | 35 | 1010.0 |
| 20260509142632 | 16 | 225 | 0.0 | 0.0 | 0.00 | 0.00 | 0.00 | 34 | 1010.0 |
| 20260509141132 | 16 | 225 | 0.0 | 0.0 | 0.00 | 0.00 | 0.00 | 34 | 1010.0 |
| 20260509140617 | 16 | 225 | 0.0 | 0.0 | 0.00 | 0.00 | 0.00 | 34 | 1010.0 |
| 20260509135632 | 16 | 225 | 0.0 | 0.0 | 0.00 | 0.00 | 0.00 | 32 | 1010.0 |
| 20260509134132 | 16 | 225 | 0.0 | 0.0 | 0.00 | 0.00 | 0.00 | 30 | 1010.0 |
| 20260509133618 | 16 | 225 | 0.0 | 0.0 | 0.00 | 0.00 | 0.00 | 29 | 1010.0 |
| 20260509132631 | 16 | 225 | 0.0 | 0.0 | 0.00 | 0.00 | 0.00 | 28 | 1010.0 |
| 20260509131132 | 17 | 225 | 0.0 | 0.0 | 0.00 | 0.00 | 0.00 | 26 | 1010.0 |
| 20260509130618 | 17 | 225 | 0.0 | 0.0 | 0.00 | 0.00 | 0.00 | 25 | 1010.0 |
| 20260509125631 | 17 | 225 | 0.0 | 0.0 | 0.00 | 0.00 | 0.00 | 24 | 1010.0 |
| 20260509124131 | 17 | 225 | 0.0 | 0.0 | 0.00 | 0.00 | 0.00 | 24 | 1010.0 |
| 20260509123618 | 17 | 225 | 0.0 | 0.0 | 0.00 | 0.00 | 0.00 | 24 | 1010.0 |
| 20260509122631 | 17 | 225 | 0.0 | 0.0 | 0.00 | 0.00 | 0.00 | 24 | 1010.0 |
| 20260509121131 | 17 | 225 | 0.0 | 0.0 | 0.00 | 0.00 | 0.00 | 24 | 1009.0 |
| 20260509120617 | 17 | 225 | 0.0 | 0.0 | 0.00 | 0.00 | 0.00 | 23 | 1009.0 |
| 20260509115632 | 18 | 225 | 0.0 | 0.0 | 0.00 | 0.00 | 0.00 | 23 | 1009.0 |
| 20260509113617 | 18 | 225 | 0.0 | 0.0 | 0.00 | 0.00 | 0.00 | 23 | 1009.0 |
| 20260509112632 | 18 | 225 | 0.0 | 0.0 | 0.00 | 0.00 | 0.00 | 23 | 1009.0 |
| 20260509110617 | 18 | 225 | 0.0 | 0.0 | 0.00 | 0.00 | 0.00 | 23 | 1009.0 |
| 20260509105631 | 18 | 225 | 0.0 | 0.0 | 0.00 | 0.00 | 0.00 | 23 | 1009.0 |
| 20260509103616 | 19 | 225 | 0.0 | 0.0 | 0.00 | 0.00 | 0.00 | 20 | 1008.0 |
| 20260509102631 | 19 | 225 | 0.0 | 4.8 | 0.00 | 0.00 | 0.00 | 20 | 1008.0 |
| 20260509100618 | 20 | 226 | 0.0 | 3.2 | 0.00 | 0.00 | 0.00 | 17 | 1008.0 |
| 20260509095631 | 20 | 270 | 0.0 | 0.0 | 0.00 | 0.00 | 0.00 | 17 | 1008.0 |
| 20260509093617 | 21 | 225 | 0.0 | 0.0 | 0.00 | 0.00 | 0.00 | 17 | 1008.0 |
| 20260509092632 | 22 | 225 | 0.0 | 3.2 | 0.00 | 0.00 | 0.00 | 16 | 1008.0 |
| 20260509091132 | 23 | 256 | 3.2 | 8.0 | 0.00 | 0.00 | 0.00 | 16 | 1008.0 |
| 20260509090616 | 23 | 225 | 0.0 | 3.2 | 0.00 | 0.00 | 0.00 | 16 | 1008.0 |
| 20260509085632 | 24 | 225 | 0.0 | 3.2 | 0.00 | 0.00 | 0.00 | 15 | 1008.0 |
| 20260509084130 | 25 | 225 | 0.0 | 3.2 | 0.00 | 0.00 | 0.00 | 15 | 1009.0 |
| 20260509083616 | 24 | 225 | 0.0 | 3.2 | 0.00 | 0.00 | 0.00 | 15 | 1008.0 |
| 20260509082631 | 24 | 225 | 0.0 | 4.8 | 0.00 | 0.00 | 0.00 | 15 | 1008.0 |
| 20260509080618 | 23 | 225 | 0.0 | 3.2 | 0.00 | 0.00 | 0.00 | 15 | 1008.0 |
| 20260509075631 | 24 | 225 | 0.0 | 4.8 | 0.00 | 0.00 | 0.00 | 15 | 1008.0 |
| 20260509074132 | 25 | 180 | 1.6 | 3.2 | 0.00 | 0.00 | 0.00 | 15 | 1008.0 |
| 20260509073617 | 25 | 315 | 0.0 | 4.8 | 0.00 | 0.00 | 0.00 | 15 | 1007.0 |
| 20260509072631 | 25 | 315 | 0.0 | 0.0 | 0.00 | 0.00 | 0.00 | 15 | 1007.0 |
| 20260509071130 | 26 | 270 | 0.0 | 3.2 | 0.00 | 0.00 | 0.00 | 15 | 1007.0 |
| 20260509070617 | 26 | 270 | 0.0 | 3.2 | 0.00 | 0.00 | 0.00 | 15 | 1007.0 |
| 20260509065630 | 25 | 270 | 3.2 | 4.8 | 0.00 | 0.00 | 0.00 | 15 | 1007.0 |
| 20260509064132 | 26 | 315 | 3.2 | 4.8 | 0.00 | 0.00 | 0.00 | 15 | 1007.0 |
| 20260509063617 | 26 | 315 | 0.0 | 0.0 | 0.00 | 0.00 | 0.00 | 15 | 1007.0 |
| 20260509062632 | 26 | 315 | 0.0 | 0.0 | 0.00 | 0.00 | 0.00 | 15 | 1007.0 |
| 20260509061131 | 26 | 315 | 0.0 | 3.2 | 0.00 | 0.00 | 0.00 | 15 | 1007.0 |
| 20260509060616 | 26 | 315 | 0.0 | 0.0 | 0.00 | 0.00 | 0.00 | 15 | 1007.0 |
| 20260509055632 | 26 | 315 | 0.0 | 9.7 | 0.00 | 0.00 | 0.00 | 15 | 1007.0 |
| 20260509054130 | 27 | 315 | 0.0 | 3.2 | 0.00 | 0.00 | 0.00 | 14 | 1006.0 |
| 20260509053616 | 26 | 225 | 0.0 | 3.2 | 0.00 | 0.00 | 0.00 | 14 | 1006.0 |
| 20260509050616 | 26 | 270 | 0.0 | 3.2 | 0.00 | 0.00 | 0.00 | 15 | 1007.0 |
| 20260509044132 | 23 | 237 | 0.0 | 3.2 | 0.00 | 0.00 | 0.00 | 15 | 1007.0 |
| 20260509043617 | 25 | 315 | 1.6 | 8.0 | 0.00 | 0.00 | 0.00 | 15 | 1007.0 |
| 20260509042631 | 25 | 315 | 0.0 | 3.2 | 0.00 | 0.00 | 0.00 | 15 | 1007.0 |
| 20260509040617 | 23 | 180 | 0.0 | 3.2 | 0.00 | 0.00 | 0.00 | 15 | 1007.0 |
| 20260509035630 | 23 | 231 | 0.0 | 4.8 | 0.00 | 0.00 | 0.00 | 16 | 1007.0 |